Fort Wayne Police Department
Fort Wayne Police Department
Emergencies Call: 911
Non-Emergencies: (260) 427-1222
report drug house

Daily Activity Logs

Activity Log for August 19, 2013 Community Search

Incident Time Nature Address
13F122494 00:03:18 30 TRAFFIC STOP 3800 WEISSER PARK AVE & RUDISILL B
13F122495 00:05:20 129 1500 LAKEWOOD DR
13F122496 00:08:59 30 TRAFFIC STOP 3700 WASHINGTON BLVD E
13F122497 00:28:03 30 TRAFFIC STOP 1700 AIRPORT EXPRESSWAY
13F122498 00:33:31 53 ARMED ROB 3100 SMITH ST
13F122499 00:36:17 911 HANG UP 7000 CHADWICK DR
13F122500 00:40:56 43 DISTURBANCE 1000 HIGH ST
13F122501 00:43:54 51IP 6000 ST JOE CENTER RD
13F122502 00:49:56 33J LOCKED OUT 300 WASHINGTON CENTER RD E & COLDW
13F122503 00:55:04 58 SHOOTING 2800 FRUEHAUF DR
13F122505 00:57:41 911 HANG UP 7000 SALGE CT
13F122504 01:00:12 911 HANG UP 4500 STANDISH DR
13F122506 01:06:19 16V PICKUP VID 00 MAIN ST E
13F122507 01:06:32 101 OPEN DOOR 6300 DONNA DR
13F122509 01:13:40 48,36 1300 ST MARYS AVE
13F122508 01:14:26 101 OPEN DOOR 5900 DARTMOUTH DR
13F122511 01:20:06 102 THREATS 6800 JOHN ST
13F122510 01:28:09 101 OPEN DOOR 2900 NORTHWAY DR
13F122512 01:33:05 101 OPEN DOOR 900 ARBORDALE PL
13F122513 01:38:24 48 SUSPICIOUS 1600 HINTON DR
13F122514 01:45:13 101 OPEN DOOR 1300 CINNAMON RD
13F122515 01:45:17 46 DOMESTIC 2200 DUNKELBERG RD
13F122516 01:58:46 48,35 2300 CLINTON ST N
13F122517 02:15:17 101 OPEN DOOR 2600 DEERWOOD DR
13F122518 02:18:03 911 HANG UP 2300 HARRISON ST S
13F122519 02:25:34 101 OPEN DOOR 2000 BELLEVUE DR
13F122520 02:25:50 48 SUSPICIOUS 11600 WESTWIND DR
13F122521 02:29:52 911 HANG UP 4400 LILLIE ST
13F122522 02:33:21 46 DOMESTIC 1400 HIGH ST
13F122523 02:36:25 30 TRAFFIC STOP 2500 SPY RUN AVE & CLINTON ST N
13F122524 02:38:40 66 72 HOUR 2200 RANDALLIA DR
13F122525 02:45:17 101 OPEN DOOR 600 MARCELLE DR
13F122526 02:52:46 43 DISTURBANCE 3700 JEFFERSON BLVD W
13F122527 02:55:35 103 UNWANTED 1500 CASS ST
13F122528 02:59:09 62 PARTY ARMED 4200 CLINTON ST S
13F122529 03:00:18 48,36 7600 SUNDERLAND DR
13F122530 03:12:03 39 STOLEN VEHIC 1300 ROCKHILL ST
13F122531 03:21:27 123 LEO/CEDARVI 15000 SR 1
13F122532 03:22:12 40A AUDIBLE 1400 MAGNAVOX WAY
13F122533 03:32:23 39U UNAUTHORIZE 4700 HEATHERWIND DR
13F122534 03:59:51 49 PROWLER 4200 KEKIONGA DR
13F122535 04:01:44 48 SUSPICIOUS 400 OAKDALE DR W
13F122536 04:09:58 48 SUSPICIOUS 1200 BERRY ST W & THIEME DR
13F122537 04:28:20 48 SUSPICIOUS 600 MAXINE DR
13F122538 04:30:30 27 RECKLESS DRI 31500 I 69 NB
13F122539 04:32:48 40A AUDIBLE 7800 RIDGESIDE LN
13F122540 04:39:42 40A AUDIBLE 7100 AUTUMN VIEW DR
13F122541 04:44:27 51,35 3000 HOAGLAND AVE
13F122542 04:48:29 911 HANG UP 1400 SUMMIT ST
13F122543 04:54:25 63 CONTACT 1200 MAPLECREST RD
13F122544 05:04:07 911 HANG UP 1400 WELLS ST
13F122545 05:13:15 46 DOMESTIC 1200 EMILY ST
13F122546 05:23:59 48 SUSPICIOUS 600 LAVINA ST
13F122547 06:08:03 33J LOCKED OUT 6300 STELLHORN RD
13F122548 06:13:00 40 ALARM 3300 CLINTON ST N
13F122549 06:23:58 51,35 00 MAIN ST E
13F122550 06:24:36 911 HANG UP 800 MILDRED AVE
13F122551 06:27:46 40A AUDIBLE 3000 WAYNE TRACE
13F122552 06:33:43 41 MAN DOWN 2200 FAIRFIELD AVE
13F122553 06:34:45 30 TRAFFIC STOP 1600 LUDWIG RD W & LIMA RD
13F122554 06:34:58 37 PARKING VIOL 1400 THIRD ST
13F122555 06:39:04 911 HANG UP 100 DEWALD ST E
13F122556 06:49:56 30 TRAFFIC STOP 600 COLUMBIA AVE & EDGEWATER AVE
13F122557 07:00:07 30 TRAFFIC STOP 6300 ANTHONY BLVD S
13F122559 07:06:03 911 HANG UP 4400 HARTMAN RD
13F122558 07:06:24 40 ALARM 200 MAIN ST W
13F122560 07:12:34 16V PICKUP VID 00 MAIN ST E
13F122561 07:28:04 25HS HIT SKIP 300 PAULDING RD E & LAFAYETTE ST S
13F122562 07:29:27 30 TRAFFIC STOP 3800 WELLS ST
13F122563 07:33:30 43 DISTURBANCE 900 RIDGEWOOD DR
13F122566 07:44:48 48 SUSPICIOUS 4100 VICTORIA DR & INWOOD DR
13F122564 07:44:51 25 PD ACCIDENT 11800 MAYWIN DR & CARROLL RD
13F122567 07:45:48 911 HANG UP 2300 LYNN AVE
13F122565 07:46:29 30 TRAFFIC STOP 200 COLISEUM BLVD W & SPEEDWAY DR
13F122568 07:49:34 40A AUDIBLE 3500 METRO DR N
13F122569 07:51:03 66 72 HOUR 2200 RANDALLIA DR
13F122570 07:57:09 129 2100 SHADY BROOK DR
13F122572 07:58:38 40A AUDIBLE 1400 FAYETTE DR
13F122571 08:00:03 30 TRAFFIC STOP 200 COLISEUM BLVD W & SPEEDWAY DR
13F122573 08:00:38 33J LOCKED OUT 3600 CALHOUN ST S
13F122574 08:06:50 30 TRAFFIC STOP 4300 LIMA RD & COLISEUM BLVD W
13F122575 08:13:14 129 5300 PORTA TRL
13F122576 08:13:38 129 5300 PORTA TRL
13F122577 08:14:48 17 MOTOR CHECK 1100 COLISEUM BLVD E
13F122578 08:20:30 23,35 VAND VEH 4200 HOBSON CT
13F122579 08:21:34 51 THEFT 5800 CLINTON ST N
13F122580 08:34:14 30 TRAFFIC STOP 800 LEY RD & LIMA RD
13F122581 08:49:05 43 DISTURBANCE 700 TAYLOR ST
13F122582 08:52:16 37 PARKING VIOL 1700 TULIP TREE RD & RED HAW DR
13F122583 08:57:03 51,35 600 LAWTON PL
13F122584 09:00:47 40A AUDIBLE 200 PETTIT AVE E
13F122587 09:09:57 43 DISTURBANCE 3900 SUMMERSWORTH RUN
13F122586 09:10:11 46,96 700 TAYLOR ST
13F122585 09:10:30 33,34 200 RUDISILL BLVD E & CLINTON ST S
13F122588 09:14:43 48 SUSPICIOUS 3200 KENWOOD AVE
13F122589 09:17:26 101 OPEN DOOR 1600 ROSEMONT DR
13F122590 09:18:09 43 DISTURBANCE 1200 VANCE AVE
13F122591 09:21:02 50 BURGLARY 6500 ROXANNE DR
13F122592 09:22:17 39 STOLEN VEHIC 3500 CLINTON ST N
13F122593 09:24:20 911 HANG UP 4400 SMITH ST
13F122595 09:27:52 50,ATTEMPTED 300 BRANDRIFF ST
13F122596 09:31:23 48 SUSPICIOUS 1700 MAIN ST W
13F122594 09:33:51 40A AUDIBLE 1400 FAYETTE DR
13F122597 09:38:42 48,35 6300 LIMA RD
13F122598 09:39:20 911 HANG UP 6300 DERBYSHIRE DR
13F122599 09:53:41 25 PD ACCIDENT 600 CALHOUN ST S & MAIN ST E
13F122600 09:54:49 911 HANG UP 500 PICADILLY CIR
13F122601 09:55:23 27 RECKLESS DRI 3100 STATE BLVD E & HOBSON RD
13F122602 10:01:52 00 MAIN ST E
13F122603 10:05:40 41,36 1000 BROADWAY & JEFFERSON BLVD W
13F122604 10:10:21 46 DOMESTIC 2300 WALLEN RD W
13F122605 10:12:28 102 THREATS 7400 ANTHONY BLVD S
13F122606 10:22:18 1 MEET 700 COLISEUM BLVD E
13F122607 10:22:58 17 MOTOR CHECK 4100 HILLEGAS RD
13F122608 10:23:16 23 VANDALISM 1500 BETHANY LN
13F122609 10:32:21 103 UNWANTED 500 JEFFERSON BLVD W
13F122610 10:32:58 63 CONTACT 7100 TREVERTON DR
13F122611 10:35:40 16V PICKUP VID 00 MAIN ST E
13F122612 10:35:48 40P PANIC ALARM 300 SUPERIOR ST W
13F122625 10:38:23 51 THEFT 8100 ANTHONY BLVD S
13F122613 10:39:49 HARASSMENT 1600 SHORT ST
13F122614 10:43:22 51,35 9100 BRADENTON RD
13F122616 10:43:35 17 MOTOR CHECK 7900 EVERGLADE CT
13F122615 10:43:59 30 TRAFFIC STOP 3900 STATE BLVD E & COLISEUM BLVD
13F122617 10:45:28 43 DISTURBANCE 2300 BROADWAY
13F122618 10:47:38 15 ASSIST 3200 KENWOOD AVE
13F122619 10:49:18 17 MOTOR CHECK 3700 GOSHEN RD
13F122620 10:51:23 51 THEFT 4500 OLD MILL RD
13F122621 10:54:01 41 MAN DOWN 1700 ST MARYS AVE
13F122623 11:01:08 911 HANG UP 7400 COLD SPRINGS BLVD
13F122622 11:01:12 25 PD ACCIDENT 600 WASHINGTON BLVD W & BROADWAY
13F122624 11:09:58 48,35 2800 CAPITOL AVE
13F122629 11:10:13 34 TRAFF HAZARD 800 PACKARD AVE W
13F122627 11:13:19 17 MOTOR CHECK 2000 EMBASSY DR
13F122626 11:18:02 38 LOST/STOLEN 6300 COLDWATER RD & I 69 NB
13F122628 11:21:41 66V MENTAL VIOL 200 RILEY PL
13F122630 11:28:41 46,96 1100 RUDISILL BLVD W
13F122632 11:34:44 51 THEFT 2400 OLIVER ST
13F122633 11:46:15 911 HANG UP 300 BERRY ST W
13F122634 11:46:47 911 HANG UP 900 BUCHANAN ST
13F122639 11:49:30 16,97 3200 DELRAY DR
13F122638 11:49:44 46 DOMESTIC 400 BRANNING AVE W
13F122635 11:51:09 102,TX THREATS 3500 DELRAY DR
13F122636 11:51:22 17 MOTOR CHECK 8200 BLUFFTON RD
13F122637 11:52:47 16V PICKUP VID 00 MAIN ST E
13F122640 12:11:58 40A AUDIBLE 1500 BILLY DR
13F122651 12:12:07 48,35 2800 OJIBWAY TRL
13F122641 12:13:07 26 PI ACCIDENT 2600 LYNN AVE
13F122642 12:14:52 129 11700 EAGLE LAKE CT
13F122643 12:15:30 38 LOST/STOLEN 3600 CHEVIOT DR
13F122644 12:17:33 911 HANG UP 4100 BOWSER AVE
13F122647 12:19:09 22I JUV INVEST 1000 CREIGHTON AVE W & BROADWAY
13F122650 12:19:18 35 PARKED VEHIC 2300 MAIN ST W
13F122646 12:20:18 64 NOT SEEN 900 WOODVIEW BLVD
13F122649 12:22:23 97 FOUND ITEMS 3600 CHEVIOT DR
13F122652 12:30:17 22N CHILD NEGLE 800 COTTAGE AVE
13F122655 12:32:19 37 PARKING VIOL 2300 CORTLAND AVE & CLAYTON AVE
13F122654 12:33:08 41,36 4100 HILLEGAS RD
13F122653 12:33:43 129 6800 JOHN ST
13F122657 12:37:57 34 TRAFF HAZARD 8200 JEFFERSON BLVD W & I 69 NB
13F122656 12:38:07 33,34 400 WASHINGTON BLVD W & FAIRFIELD
13F122666 12:39:32 18 WORK TRAFFIC 3100 CRESCENT AVE & ANTHONY BLVD N
13F122658 12:44:15 46 DOMESTIC 700 DEWALD ST W
13F122659 12:45:17 25HS HIT SKIP 2700 JEFFERSON BLVD W
13F122668 12:47:37 46 DOMESTIC 300 KINNAIRD AVE
13F122660 12:48:59 46,96 5000 PLAZA DR
13F122662 12:52:15 51JO 3600 DUPONT RD E
13F122664 12:53:25 45 NEIGHBORHOOD 7400 OLD TRAIL RD
13F122661 12:54:07 64 NOT SEEN 1800 GETZ RD
13F122663 12:55:43 25 PD ACCIDENT 5700 CALHOUN ST S & PAULDING RD E
13F122669 12:55:50 102 THREATS 5600 RIVER RUN TRL
13F122667 12:57:30 911 HANG UP 100 TIMBER LN
13F122665 12:59:20 102 THREATS 9100 LIMA RD
13F122670 13:11:23 911 HANG UP 1000 BRIDGE POINTE
13F122671 13:13:15 22I JUV INVEST 3100 STATE BLVD E
13F122697 13:13:29 35 PARKED VEHIC 6500 HILLRISE DR
13F122682 13:28:21 47 REMOVE ITEMS 1100 RUDISILL BLVD W
13F122672 13:28:36 48,36 6000 ST JOE CENTER RD
13F122687 13:29:28 16,97 5900 YELLOWSTONE DR
13F122673 13:32:48 97 FOUND ITEMS 00 MAIN ST E
13F122675 13:34:27 102 THREATS 00 MAIN ST E
13F122674 13:35:46 40A AUDIBLE 400 COLISEUM BLVD W
13F122676 13:46:25 72 FAIL TO PAY 7000 BLUFFTON RD
13F122677 13:48:12 48 SUSPICIOUS 3400 SHERMAN BLVD
13F122678 13:49:48 911 HANG UP 7500 COLD SPRINGS BLVD
13F122679 13:51:52 129 4800 ROCKY KNOLL DR
13F122680 13:55:56 51,35 600 WALNUT ST
13F122681 13:57:11 TOW 2600 FAIRFIELD VIEW PL
13F122683 13:57:52 33,34 1700 DUPONT RD W & LIMA RD
13F122684 13:59:09 63Z ZACH CHECK 300 MCKINNIE AVE
13F122686 14:00:50 911 HANG UP 11600 COLDWATER RD
13F122685 14:01:17 16V PICKUP VID 00 MAIN ST E
13F122688 14:03:57 97 FOUND ITEMS 3700 DUPONT RD E
13F122690 14:08:55 48,35 3200 CLAIRMONT CT
13F122689 14:09:35 30 TRAFFIC STOP 3300 LAFAYETTE ST S & WIEBKE ST
13F122691 14:10:32 17 MOTOR CHECK 3300 CONGRESSIONAL PKWY
13F122694 14:12:51 50 BURGLARY 2700 STARDALE DR
13F122692 14:13:06 48 SUSPICIOUS 600 LEWIS ST E
13F122693 14:18:24 15 ASSIST 1200 HERBERT ST
13F122695 14:21:54 46,96 200 DEWALD ST E
13F122696 14:23:42 51JO 1800 COLONIAL AVE W
13F122706 14:23:46 1 MEET 2300 OLIVER ST
13F122698 14:29:32 911 HANG UP 300 SUPERIOR ST E
13F122699 14:30:16 44LM 6200 ST JOE RD
13F122700 14:38:00 25 PD ACCIDENT 700 LAFAYETTE ST S & BERRY ST E
13F122704 14:43:29 63 CONTACT 7700 CURRIE HILL CT
13F122701 14:43:59 108 FOLLOWUP 2800 STATE BLVD E
13F122702 14:44:09 25 PD ACCIDENT 2800 STARDALE DR & WAYCROSS DR
13F122703 14:45:44 30 TRAFFIC STOP 6000 COVINGTON RD & GETZ RD
13F122705 14:48:09 15 ASSIST 4000 REED ST
13F122720 14:49:30 48,35 4700 WYNDEMERE LN
13F122707 14:56:43 16,97 1500 KENTUCKY AVE
13F122708 14:57:02 51 THEFT 3000 COLISEUM BLVD W
13F122709 14:59:07 17 MOTOR CHECK 2100 BRAEMAR DR
13F122724 15:03:20 50 BURGLARY 1600 HINTON DR
13F122710 15:03:28 26 PI ACCIDENT 10300 DUPONT PLAZA ENTR & PARKVIEW
13F122712 15:04:11 46,96 1700 MAUMEE AVE
13F122715 15:04:12 51,ATTEMPTED 4500 COLONIAL AVE S
13F122711 15:04:45 46,96 5400 CALHOUN ST S
13F122713 15:09:19 48 SUSPICIOUS 6500 LIMA RD
13F122718 15:09:21 911 HANG UP 1700 HOBSON RD
13F122714 15:09:32 48 SUSPICIOUS 1200 WAYNE ST W
13F122716 15:11:56 30 TRAFFIC STOP 3000 SHERMAN BLVD & FRANKE PARK DR
13F122719 15:12:50 911 HANG UP 6300 ILLINOIS RD
13F122717 15:13:10 25 PD ACCIDENT 6000 JEFFERSON BLVD W & GETZ RD
13F122842 15:15:46 17 MOTOR CHECK 2000 CALHOUN ST S
13F122727 15:17:01 50 BURGLARY 1900 SHERMAN BLVD
13F122722 15:18:23 66V MENTAL VIOL 2000 PHENIE ST
13F122721 15:18:25 48,36 4100 WARSAW ST
13F122723 15:21:14 103 UNWANTED 3400 WEBSTER ST
13F122748 15:26:10 102,TX THREATS 300 STORMY CT
13F122729 15:26:38 46 DOMESTIC 400 ARCADIA CT
13F122726 15:27:29 25HS HIT SKIP 4100 ILLINOIS RD
13F122725 15:30:39 30 TRAFFIC STOP 7300 JEFFERSON BLVD W & ABOITE CEN
13F122728 15:35:25 30 TRAFFIC STOP 200 EDGEWOOD AVE & LIMA RD
13F122731 15:38:16 48 SUSPICIOUS 2500 BELFAST DR
13F122730 15:45:57 33,34 200 RUDISILL BLVD E
13F122732 15:46:57 48,35 1500 HUFFMAN BLVD
13F122734 15:48:15 46,96 5900 HINSDALE LN
13F122736 15:50:47 911 HANG UP 6700 TRIER RD
13F122733 15:52:21 26 PI ACCIDENT 4800 ANTHONY BLVD S & PETTIT AVE E
13F122752 15:52:55 39 STOLEN VEHIC 400 JEFFERSON BLVD E
13F122735 15:54:01 HARASSMENT 5100 VERMONT LN
13F122737 15:55:25 911 HANG UP 6700 TRIER RD
13F122738 15:58:20 62 PARTY ARMED 8300 BRIDGEWAY BLVD
13F122739 15:59:46 911 HANG UP 7900 JEFFERSON BLVD W
13F122744 16:01:31 63 CONTACT 800 DEWALD ST W
13F122741 16:02:06 911 HANG UP 1400 PRODUCTION RD
13F122743 16:05:17 911 HANG UP 2900 WALLEN RD E & I 69 NB
13F122745 16:07:28 51 THEFT 1500 HOBSON RD
13F122747 16:12:18 911 HANG UP 5400 BUELL DR
13F122764 16:12:32 22RC RECOVERY 4000 ANTHONY BLVD S
13F122753 16:13:23 102,TX THREATS 1900 FOX POINT TRL
13F122750 16:16:25 17 MOTOR CHECK 200 SUPERIOR ST W
13F122751 16:19:26 30 TRAFFIC STOP 100 MAIN ST E & CLINTON ST S
13F122789 16:23:35 37 PARKING VIOL 4200 SOUTHPARK DR & MCKINNIE AVE
13F122754 16:24:02 96JO 1200 PACKARD AVE W
13F122756 16:24:23 63 CONTACT 7000 LAMONT DR
13F122755 16:26:50 24 MISSING PERS 2200 THOMPSON AVE
13F122845 16:27:02 109 DUMPING 4100 OXFORD ST
13F122843 16:28:23 17 MOTOR CHECK 300 LEITH ST E
13F122760 16:29:26 102,TX THREATS 3100 HOAGLAND AVE
13F122757 16:33:01 43 DISTURBANCE 2500 ANCHOR WAY
13F122793 16:36:50 51 THEFT 1600 HOWELL ST
13F122758 16:37:17 48 SUSPICIOUS 4300 COLDWATER RD & COLISEUM BLVD
13F122759 16:38:16 51 THEFT 5300 GOSHEN RD
13F122762 16:41:52 62 PARTY ARMED 600 COLISEUM BLVD E
13F122761 16:42:00 16V PICKUP VID 00 MAIN ST E
13F122765 16:44:45 83 INFO REPORT 5200 STELLHORN RD
13F122766 16:45:22 25HS HIT SKIP 400 JEFFERSON BLVD E
13F122767 16:47:16 51,35 1800 GRISWOLD DR
13F122769 16:47:20 26 PI ACCIDENT 2200 KENTUCKY AVE & STATE BLVD E
13F122768 16:47:48 30 TRAFFIC STOP 200 COLISEUM BLVD W & SPEEDWAY DR
13F122770 16:49:33 1 MEET 1100 FOURTH ST W
13F122771 16:50:51 25 PD ACCIDENT 1700 WASHINGTON BLVD E & ANTHONY B
13F122772 16:51:28 45 NEIGHBORHOOD 4000 SUMMERSWORTH RUN
13F122787 16:51:48 1 MEET 1000 THIRD ST
13F122773 16:52:12 103 UNWANTED 500 LAWTON PL
13F122774 16:52:44 25 PD ACCIDENT 6200 STELLHORN RD & MAPLECREST RD
13F122775 16:56:21 30 TRAFFIC STOP 4700 JEFFERSON BLVD W
13F122792 16:56:52 50,ATTEMPTED 1000 SHERWOOD TERR W
13F122776 16:58:25 96 BATTERY 3300 HOBSON RD
13F122778 17:01:59 96JO 500 RIDGEMOOR DR
13F122780 17:02:00 25 PD ACCIDENT 2200 MCKINNIE AVE & ABBOTT ST
13F122882 17:02:16 50,ATTEMPTED 6200 AMARILLO DR
13F122783 17:03:39 24 MISSING PERS 3300 TIMBERHILL DR
13F122777 17:03:42 26PP PINNED 7100 VENTURE LN
13F122850 17:12:11 39U UNAUTHORIZE 3000 CANTERBURY BLVD
13F122779 17:12:28 51 THEFT 10400 MAYSVILLE RD
13F122781 17:19:20 33J LOCKED OUT 6300 STATE BLVD E
13F122782 17:19:55 HARASSMENT 2800 PENNSYLVANIA ST
13F122785 17:20:18 25 PD ACCIDENT 800 STATE BLVD W & SHERMAN BLVD
13F122784 17:21:59 46 DOMESTIC 1600 HOWELL ST
13F122827 17:22:11 51 THEFT 4600 HEATHERWIND DR
13F122795 17:24:06 25HS HIT SKIP 1000 ANTHONY BLVD S & MAUMEE AVE
13F122790 17:26:13 18 WORK TRAFFIC 1400 ST JOSEPH BLVD & TENNESSEE AV
13F122786 17:26:31 39R STOLEN RECO 800 JEFFERSON BLVD E
13F122788 17:27:15 48,35 1400 SWINNEY AVE & RIEDMILLER AVE
13F122791 17:30:06 18 WORK TRAFFIC 1700 WASHINGTON BLVD E & ANTHONY B
13F122794 17:31:33 18 WORK TRAFFIC 700 ANTHONY BLVD S & BERRY ST E
13F122803 17:32:02 25 PD ACCIDENT 100 MAIN ST E & CLINTON ST S
13F122796 17:33:19 46 DOMESTIC 100 FOSTER PKWY E
13F122797 17:34:01 40A AUDIBLE 5200 COVINGTON RD
13F122798 17:34:38 51 THEFT 3500 BOWSER AVE
13F122903 17:36:10 38 LOST/STOLEN 3600 CHEVIOT DR
13F122799 17:38:03 911 HANG UP 800 HUFFMAN ST
13F122800 17:38:47 25 PD ACCIDENT 3600 INDEPENDENCE DR
13F122801 17:39:53 25 PD ACCIDENT 1700 DUPONT RD W & LIMA RD
13F122808 17:39:59 14S SERVING WAR 300 KINNAIRD AVE
13F122802 17:43:22 46,96 600 TENNESSEE AVE
13F122804 17:44:53 62 PARTY ARMED 4800 HOAGLAND AVE
13F122805 17:47:15 40A AUDIBLE 3300 MCKINNIE AVE
13F122807 17:51:31 24 MISSING PERS 1200 BARR ST S
13F122806 17:51:44 30 TRAFFIC STOP 1800 GREENTREE CT
13F122809 17:52:50 43 DISTURBANCE 7500 SOUTHTOWN XING
13F122879 17:53:52 22I JUV INVEST 500 WOODLAND AVE E
13F122813 17:56:24 33,34 3200 DUPONT RD E & I 69 316 NB ON
13F122815 17:59:04 22I JUV INVEST 4500 LAFAYETTE ST S
13F122811 17:59:10 911 HANG UP 4000 BOWSER AVE
13F122810 18:00:26 25 PD ACCIDENT 8200 JEFFERSON BLVD W & I 69 NB
13F122812 18:01:59 25 PD ACCIDENT 10400 MAYSVILLE RD
13F122814 18:03:15 22I JUV INVEST 3700 BRENTWOOD AVE
13F122817 18:06:45 22RN RUNAWAY 100 WILDWOOD AVE W
13F122839 18:07:05 63 CONTACT 900 FRANCIS ST
13F122819 18:10:15 40A AUDIBLE 7100 STRAWBERRY DR
13F122816 18:10:39 58 SHOOTING 2100 CHARTWELL DR
13F122824 18:12:43 39R STOLEN RECO 1200 LAKE AVE & CALIFORNIA AVE
13F122818 18:14:49 33,34 200 EDGEWOOD AVE & LIMA RD
13F122820 18:16:25 25 PD ACCIDENT 9000 LIBERTY MILLS RD & JEFFERSON
13F122825 18:16:41 33,34 7300 LIMA RD & COOK RD W
13F122822 18:18:44 911 HANG UP 6800 LAKE CREST CT
13F122821 18:19:26 62 PARTY ARMED 4200 ARLINGTON AVE
13F122823 18:22:39 30 TRAFFIC STOP 4000 SMITH ST
13F122829 18:28:20 22N CHILD NEGLE 3100 PLAZA DR
13F122826 18:28:35 51 THEFT 5300 BASS RD
13F122828 18:30:00 34 TRAFF HAZARD 1200 SPRING ST
13F122830 18:42:59 48,36 4700 WYNDEMERE LN
13F122833 18:44:29 43 DISTURBANCE 1800 WELLS ST
13F122831 18:45:20 25,86 2100 CHARTWELL DR
13F122832 18:46:45 40ATM ATM ALARM 200 PETTIT AVE E
13F122835 18:48:20 51 THEFT 5400 BUELL DR
13F122834 18:49:27 75 PURSUIT 3700 WARSAW ST
13F122836 18:52:14 51 THEFT 1700 CORTLAND AVE
13F122837 18:53:49 83 INFO REPORT 4400 BRIDGETOWN RUN
13F122841 18:53:57 911 HANG UP 1100 IRENE AVE
13F122838 18:55:46 30 TRAFFIC STOP 5400 COVINGTON RD
13F122840 18:56:26 33J LOCKED OUT 10400 MAYSVILLE RD
13F122849 18:59:27 911 HANG UP 500 SOUTHVIEW AVE
13F122895 19:00:47 51 THEFT 2600 NORTHGATE BLVD
13F122844 19:03:52 30 TRAFFIC STOP 3100 WASHINGTON CENTER RD W
13F122846 19:04:34 51 THEFT 1500 WELLS ST
13F122847 19:04:36 HARASSMENT 300 MCKINNIE AVE
13F122848 19:04:56 26 PI ACCIDENT 4400 ILLINOIS RD
13F122855 19:12:08 40I INTRUSION 3400 MCKINNIE AVE
13F122862 19:12:36 911 HANG UP 4100 STRATHDON DR
13F122858 19:13:09 51 THEFT 1500 SINCLAIR ST
13F122851 19:13:10 48,36 2200 COLISEUM BLVD N & STATE BLVD
13F122852 19:14:37 51 THEFT 3500 LILLIE ST
13F122853 19:16:23 EMS 1200 HUESTIS AVE
13F122854 19:17:51 911 HANG UP 1700 APPLE GLEN BLVD
13F122856 19:22:36 30 TRAFFIC STOP 3400 ANTHONY BLVD S & OXFORD ST
13F122857 19:26:05 14 WARRANT 2700 WASHINGTON CENTER RD W
13F122859 19:32:02 LP LOST PROPERT 100 BAKER ST W
13F122860 19:33:16 43 DISTURBANCE 1100 FRANKLIN AVE
13F122861 19:34:07 51 THEFT 1400 COLISEUM BLVD E
13F122865 19:36:01 911 HANG UP 1100 LEWIS ST E
13F122874 19:36:55 46 DOMESTIC 400 SPRING ST
13F122883 19:37:21 16,97 4200 OLIVER ST
13F122869 19:37:52 911 HANG UP 2100 SPY RUN AVE
13F122863 19:37:53 30 TRAFFIC STOP 3800 ANTHONY BLVD S & RUDISILL BLV
13F122876 19:38:14 46 DOMESTIC 6900 ORDWAY DR
13F122864 19:39:12 57 STRONG ARM 300 STATE BLVD W
13F122867 19:40:20 911 HANG UP 700 BROADWAY
13F122866 19:41:34 62 PARTY ARMED 1300 SPRING ST
13F122870 19:41:42 911 HANG UP 1200 RALPH AVE
13F122873 19:43:30 40A AUDIBLE 5800 MEADOWS DR
13F122872 19:44:02 EMS 4100 REED ST
13F122868 19:44:07 14 WARRANT 1200 NUTTMAN AVE
13F122871 19:45:11 129 1100 PACKARD AVE W
13F122877 19:45:20 911 HANG UP 3400 MCKINNIE AVE
13F122875 19:47:42 22N CHILD NEGLE 4200 COLDWATER RD
13F122878 19:48:33 47 REMOVE ITEMS 8500 HAWK SPRING HILL
13F122880 19:58:01 911 HANG UP 2700 MILLBROOK DR
13F122881 19:59:04 46 DOMESTIC 1100 HIGH ST
13F122884 20:02:59 25 PD ACCIDENT 1000 TAYLOR ST & BROADWAY
13F122888 20:09:07 55 FIGHT 2900 NEW HAVEN AVE
13F122885 20:09:13 30 TRAFFIC STOP 4400 LAFAYETTE ST S & CONGRESS AVE
13F122891 20:10:26 46 DOMESTIC 3000 COLISEUM BLVD E
13F122887 20:11:07 911 HANG UP 1500 BLUFFTON RD
13F122886 20:11:12 911 HANG UP 1900 LOWER HUNTINGTON RD
13F122889 20:15:55 30 TRAFFIC STOP 800 PONTIAC ST E & JOHN ST
13F122892 20:17:40 911 HANG UP 200 LENOX AVE W
13F122890 20:18:54 43 DISTURBANCE 4100 CLINTON ST N
13F122897 20:20:01 24 MISSING PERS 2300 CAMBRIDGE BLVD
13F122898 20:20:36 48 SUSPICIOUS 7100 RIVERTON DR
13F122893 20:21:18 102 THREATS 8900 SANDPIPER CT
13F122894 20:23:17 63 CONTACT 2100 EDEN ST
13F122915 20:24:48 44FW 7900 DECATUR RD
13F122896 20:32:42 83 INFO REPORT 7100 CHIVINGTON DR
13F122899 20:34:16 41 MAN DOWN 2300 HOAGLAND AVE
13F122902 20:35:42 911 HANG UP 1200 SUMMIT ST
13F122901 20:37:30 911 HANG UP 3900 OLD MILL RD
13F122900 20:38:03 70 FIRE 1200 HERBERT ST
13F122904 20:43:49 25 PD ACCIDENT 1100 ST JOE RIVER DR & PARNELL AVE
13F122908 20:44:33 96 BATTERY 4500 JASON DR
13F122905 20:44:41 911 HANG UP 6100 STELLHORN RD
13F122906 20:47:28 1 MEET 7300 DECATUR RD
13F122907 20:50:49 30 TRAFFIC STOP 600 PONTIAC ST E & HANNA ST S
13F122909 20:56:24 65A SUICIDE ATT 3500 RAYMOND AVE
13F122910 20:58:48 55 FIGHT 4800 WEISSER PARK AVE
13F122912 21:01:03 40A AUDIBLE 2800 REED ST
13F122911 21:02:16 25 PD ACCIDENT 300 COLISEUM BLVD E & COLDWATER RD
13F122913 21:02:26 48,36 600 THIRD ST
13F122917 21:06:35 48 SUSPICIOUS 6300 LIMA RD
13F122914 21:06:54 30 TRAFFIC STOP 1400 CLINTON ST N & FOURTH ST E
13F122916 21:09:29 14 WARRANT 2500 LILLIE ST
13F122918 21:10:20 51,35 6300 JEFFERSON BLVD W
13F122919 21:13:05 96JO 7500 SOUTHTOWN XING
13F122920 21:14:51 129 1100 GOLDSPUR DR E
13F122922 21:15:34 43 DISTURBANCE 4500 SOUTHPARK DR
13F122921 21:16:49 43 DISTURBANCE 7200 LAKERIDGE DR
13F122923 21:17:14 42 INTOX PERSON 700 TENNESSEE AVE
13F122926 21:18:45 102,TX THREATS 900 WASHINGTON BLVD E
13F122924 21:23:35 30 TRAFFIC STOP 400 RUDISILL BLVD E & AVONDALE DR
13F122925 21:27:31 33,34 5400 LIMA RD & I 69 NB
13F122928 21:27:31 40A AUDIBLE 1100 COLUMBIA AVE
13F122927 21:28:28 40A AUDIBLE 4100 JEFFERSON BLVD W
13F122929 21:30:14 30 TRAFFIC STOP 1300 TAYLOR ST & THOMPSON AVE
13F122930 21:31:25 48 SUSPICIOUS 2100 HARRISON ST S & DEWALD ST W
13F122931 21:33:47 41 MAN DOWN 400 VIOLET CT
13F122932 21:33:48 33J LOCKED OUT 3600 DUPONT RD E
13F122941 21:37:08 46 DOMESTIC 200 NORTHEAST DR
13F122957 21:38:56 63 CONTACT 3700 BARR ST S
13F122933 21:39:15 911 HANG UP 3300 ANTHONY BLVD S
13F122934 21:41:23 44LP 400 DEWALD ST W
13F122946 21:43:38 102 THREATS 400 ARCHER AVE
13F122935 21:47:06 16V PICKUP VID 00 MAIN ST E
13F122937 21:49:20 46 DOMESTIC 100 COUNTRY FOREST DR
13F122936 21:49:29 113 SHOTS FIRED 3100 OLIVER ST
13F122938 21:52:19 48 SUSPICIOUS 700 HOFER AVE & GOSHEN AVE
13F122950 21:53:06 23,35 VAND VEH 1200 SHERIDAN CT
13F122939 21:54:12 30 TRAFFIC STOP 3800 ROBINWOOD DR & RUDISILL BLVD
13F122940 21:58:40 51JO 4200 COLDWATER RD
13F122943 21:59:44 48,36 5300 LAKE AVE
13F122942 22:03:04 43 DISTURBANCE 400 KINNAIRD AVE & FAIRFIELD AVE
13F122955 22:04:42 11C CAGE CAR 5300 COLDWATER RD
13F122944 22:05:20 59 CUTTING/STAB 4400 WINTER ST
13F122949 22:08:59 103 UNWANTED 900 LAKE AVE
13F122945 22:10:15 26HS PI HITSKIP 2500 CALHOUN ST S & WOODLAND AVE E
13F122948 22:11:11 40A AUDIBLE 7300 LIMA RD
13F122947 22:12:49 16,97 3000 ANTHONY BLVD S
13F122954 22:16:16 48,36 1100 DELAWARE AVE & CRESCENT AVE
13F122952 22:16:42 911 HANG UP 3500 BOWSER AVE
13F122951 22:19:04 62 PARTY ARMED 4600 WEISSER PARK AVE
13F122953 22:22:14 30 TRAFFIC STOP 3800 ARLINGTON AVE & RUDISILL BLVD
13F122956 22:25:29 62 PARTY ARMED 4700 LAKE AVE & REED RD
13F122961 22:25:51 911 HANG UP 3300 TRIER RD
13F122959 22:30:02 65T SUICIDE THR 2400 JULIAN ST
13F122958 22:30:53 129 5700 HOPKINTON DR
13F122960 22:34:09 48 SUSPICIOUS 1900 COLISEUM BLVD W & HARRIS RD
13F122962 22:39:24 911 HANG UP 2800 NORTHGATE BLVD
13F122966 22:48:28 45 NEIGHBORHOOD 4900 LIMA RD
13F122963 22:52:56 30 TRAFFIC STOP 800 LEY RD & LIMA RD
13F122964 22:54:20 25HS HIT SKIP 7500 SOUTHTOWN XING
13F122965 22:55:17 51JO 2100 FAIRFIELD AVE
13F122967 23:01:51 33,34 3500 ILLINOIS RD & JEFFERSON BLVD
13F122968 23:03:46 30 TRAFFIC STOP 7300 COLDWATER RD & COOK RD E
13F122969 23:04:06 43 DISTURBANCE 900 LAKE AVE
13F122970 23:07:08 40A AUDIBLE 6400 TALBOT CT
13F122971 23:12:31 51,35 2800 HOAGLAND AVE
13F122976 23:24:08 50 BURGLARY 1400 OAKLAND ST
13F122975 23:26:20 14 WARRANT 1000 ARCHER AVE & ST MARYS AVE
13F122972 23:26:23 30 TRAFFIC STOP 1400 DREXEL AVE & REED ST
13F122974 23:26:53 30 TRAFFIC STOP 5300 ANTHONY BLVD S
13F122977 23:27:33 44LM 4200 REED ST
13F122979 23:37:24 51 THEFT 3300 ANTHONY BLVD S
13F122978 23:39:02 43 DISTURBANCE 1100 COLLEGE ST
13F122980 23:42:36 40A AUDIBLE 4100 LIMA RD
13F122989 23:42:53 37 PARKING VIOL 900 ST MARYS AVE & PAPE AVE
13F122982 23:46:27 27 RECKLESS DRI 1400 CLINTON ST S & BRACKENRIDGE S
13F122983 23:49:57 40A AUDIBLE 400 STATE BLVD W
Amber Alert

All-America City